Flag for Pakistan Weather past 2 weeks in Karachi, Sindh, Pakistan

Now
84 °F

Partly sunny.


Feels Like: 88 °F
Forecast: 80 / 85 °F
Wind: 16 mph from Southwest

Location: Karachi Airport

Current Time: Sep 3, 2015 at 7:07:25 PM

Latest Report: Sep 3, 2015 at 6:25 PM


Visibility: 4 mi

Pressure: 29.71 "Hg

Humidity: 62%

Dew point: 70 °F

Location of KarachiLocation

Historic Weather in Karachi — Graph

°F

Karachi temperature yesterday

Maximum temperature yesterday: 88 °F (at 11:55 AM)
Minimum temperature yesterday: 79 °F (at 4:25 AM)
Average temperature yesterday: 83 °F

Past Weeks' High & Low Weather Summary

 TemperatureHumidityPressure
High97 °F (Aug 26, 5:00 PM)89% (Aug 22, 1:55 AM)29.74 "Hg (Aug 22, 1:55 AM)
Low79 °F (Aug 22, 1:55 AM)17% (Aug 30, 3:25 PM)29.56 "Hg (Aug 22, 3:55 PM)
Average84 °F67%29.66 "Hg
* Reported Aug 19 5:25 PM — Sep 3 5:55 PM, Karachi, Weather by CustomWeather, © 2015

Note: Actual official high and low records may vary slightly from our data, if they occured in-between our weather recording intervals... More about our weather records

Advertising

Karachi weather history for previous 24 hours

 ConditionsComfort  
Time TempWeatherWind HumidityBarometerVisibility
5:55 PM
Thu, Sep 3
84 °FScattered clouds.10 mph62%29.71 "Hg4 mi
5:25 PM86 °FPartly sunny.14 mph55%29.71 "Hg4 mi
4:55 PM86 °FPartly sunny.8 mph55%29.71 "Hg4 mi
4:25 PM88 °FPartly sunny.9 mph55%29.71 "Hg4 mi
3:55 PM88 °FPartly sunny.17 mph52%29.71 "Hg4 mi
3:25 PM88 °FPartly sunny.9 mph49%29.71 "Hg4 mi
2:55 PM88 °FPartly sunny.9 mph52%29.71 "Hg4 mi
2:25 PM88 °FScattered clouds.9 mph52%29.71 "Hg4 mi
1:55 PM88 °FScattered clouds.12 mph49%29.71 "Hg4 mi
1:25 PM88 °FScattered clouds.12 mph49%29.71 "Hg4 mi
12:55 PM88 °FScattered clouds.14 mph52%29.74 "Hg4 mi
12:25 PM88 °FScattered clouds.10 mph52%29.74 "Hg4 mi
11:55 AM90 °FScattered clouds.12 mph46%29.74 "Hg4 mi
11:25 AM88 °FPartly sunny.10 mph49%29.74 "Hg4 mi
10:55 AM88 °FScattered clouds.12 mph49%29.74 "Hg4 mi
10:25 AM86 °FScattered clouds.12 mph52%29.74 "Hg4 mi
9:55 AM86 °FScattered clouds.9 mph52%29.74 "Hg4 mi
9:25 AM84 °FScattered clouds.10 mph58%29.74 "Hg4 mi
8:55 AM84 °FScattered clouds.9 mph58%29.74 "Hg4 mi
8:25 AM82 °FScattered clouds.8 mph62%29.74 "Hg4 mi
7:55 AM81 °FScattered clouds.8 mph66%29.71 "Hg4 mi
7:25 AM81 °FScattered clouds.8 mph66%29.71 "Hg4 mi
6:55 AM81 °FScattered clouds.9 mph70%29.71 "Hg4 mi
6:25 AM81 °FScattered clouds.6 mph70%29.68 "Hg4 mi
5:55 AM81 °FPassing clouds.8 mph66%29.68 "Hg4 mi
5:25 AM81 °FPassing clouds.6 mph66%29.68 "Hg4 mi
4:55 AM81 °FPassing clouds.7 mph70%29.68 "Hg4 mi
4:25 AM81 °FPassing clouds.5 mph70%29.68 "Hg4 mi
3:55 AM81 °FPassing clouds.6 mph70%29.68 "Hg4 mi
3:25 AM81 °FPassing clouds.10 mph70%29.68 "Hg4 mi
2:55 AM81 °FPassing clouds.9 mph70%29.68 "Hg4 mi
2:25 AM81 °FPassing clouds.6 mph70%29.68 "Hg4 mi
1:55 AM81 °FPassing clouds.7 mph70%29.68 "Hg4 mi
1:25 AM81 °FPassing clouds.7 mph70%29.68 "Hg4 mi
12:55 AM81 °FPassing clouds.7 mph70%29.68 "Hg4 mi
12:25 AM81 °FPassing clouds.6 mph70%29.68 "Hg4 mi
11:55 PM
Wed, Sep 2
81 °FPassing clouds.9 mph70%29.68 "Hg4 mi
11:25 PM81 °FPassing clouds.9 mph70%29.71 "Hg4 mi
10:55 PM81 °FPassing clouds.7 mph70%29.71 "Hg4 mi
10:25 PM82 °FPassing clouds.9 mph66%29.68 "Hg4 mi
9:55 PM82 °FPassing clouds.7 mph66%29.68 "Hg4 mi
9:25 PM82 °FPassing clouds.12 mph66%29.68 "Hg4 mi
8:55 PM82 °FPassing clouds.12 mph62%29.65 "Hg4 mi
8:25 PM82 °FPassing clouds.12 mph62%29.65 "Hg4 mi
7:55 PM82 °FPassing clouds.12 mph66%29.65 "Hg4 mi
7:25 PM82 °FPassing clouds.12 mph66%29.65 "Hg4 mi
Weather by CustomWeather, © 2015

See weather overviewHow to use our weather pages